| time (UTC) | temp F | wind direction | speed MPH | gust MPH | rain 1hr in | rain 24hr in | rain mn in | humidity % | barometer mb |
| 20260505011505 | 48 | 123 | 0.0 | 0.0 | 0.00 | 0.23 | 0.23 | 92 | 1013.3 |
| 20260505011005 | 48 | 123 | 0.0 | 0.0 | 0.00 | 0.23 | 0.23 | 92 | 1013.3 |
| 20260505010504 | 48 | 123 | 0.0 | 0.0 | 0.00 | 0.23 | 0.23 | 91 | 1013.3 |
| 20260505005005 | 49 | 123 | 0.0 | 0.0 | 0.00 | 0.23 | 0.23 | 91 | 1013.7 |
| 20260505004505 | 49 | 123 | 0.0 | 0.0 | 0.00 | 0.23 | 0.23 | 91 | 1013.8 |
| 20260505004005 | 49 | 123 | 0.0 | 2.0 | 0.00 | 0.23 | 0.23 | 91 | 1013.8 |
| 20260505003005 | 49 | 123 | 0.0 | 0.0 | 0.00 | 0.23 | 0.23 | 91 | 1013.6 |
| 20260505002504 | 49 | 123 | 0.0 | 0.0 | 0.00 | 0.23 | 0.23 | 91 | 1013.5 |
| 20260505002005 | 49 | 123 | 0.0 | 0.0 | 0.00 | 0.23 | 0.23 | 91 | 1013.6 |
| 20260505001505 | 49 | 123 | 0.0 | 0.0 | 0.00 | 0.23 | 0.23 | 91 | 1013.7 |
| 20260505001005 | 49 | 123 | 0.0 | 2.0 | 0.00 | 0.23 | 0.23 | 91 | 1013.6 |
| 20260505000505 | 49 | 260 | 1.0 | 2.0 | 0.00 | 0.23 | 0.23 | 91 | 1013.6 |
| 20260505000005 | 49 | 260 | 0.0 | 0.0 | 0.00 | 0.23 | 0.23 | 92 | 1013.7 |
| 20260504235505 | 49 | 260 | 0.0 | 0.0 | 0.00 | 0.23 | 0.23 | 92 | 1013.8 |
| 20260504235004 | 49 | 260 | 0.0 | 0.0 | 0.00 | 0.23 | 0.23 | 93 | 1013.8 |
| 20260504234505 | 49 | 260 | 0.0 | 0.0 | 0.00 | 0.23 | 0.23 | 93 | 1013.8 |
| 20260504233504 | 49 | 260 | 0.0 | 0.0 | 0.00 | 0.23 | 0.23 | 92 | 1013.9 |
| 20260504233005 | 49 | 260 | 0.0 | 2.0 | 0.00 | 0.23 | 0.23 | 93 | 1013.9 |
| 20260504232504 | 49 | 260 | 0.0 | 2.0 | 0.00 | 0.23 | 0.23 | 92 | 1013.7 |
| 20260504232005 | 49 | 260 | 0.0 | 0.0 | 0.01 | 0.23 | 0.23 | 92 | 1013.8 |
| 20260504231005 | 49 | 260 | 0.0 | 1.0 | 0.01 | 0.23 | 0.23 | 92 | 1013.8 |
| 20260504230505 | 49 | 259 | 0.0 | 0.0 | 0.01 | 0.23 | 0.23 | 93 | 1013.9 |
| 20260504230005 | 48 | 259 | 0.0 | 0.0 | 0.01 | 0.23 | 0.23 | 92 | 1013.9 |
| 20260504225505 | 48 | 259 | 0.0 | 0.0 | 0.01 | 0.23 | 0.23 | 92 | 1013.9 |
| 20260504224005 | 48 | 259 | 0.0 | 0.0 | 0.02 | 0.23 | 0.23 | 93 | 1014.0 |
| 20260504222505 | 48 | 259 | 0.0 | 0.0 | 0.05 | 0.23 | 0.23 | 93 | 1014.1 |
| 20260504222005 | 48 | 259 | 0.0 | 0.0 | 0.06 | 0.22 | 0.22 | 93 | 1014.2 |
| 20260504221005 | 48 | 259 | 0.0 | 2.0 | 0.08 | 0.22 | 0.22 | 93 | 1014.1 |
| 20260504220505 | 48 | 259 | 0.0 | 2.0 | 0.09 | 0.22 | 0.22 | 93 | 1014.1 |
| 20260504215504 | 47 | 259 | 0.0 | 2.0 | 0.11 | 0.22 | 0.22 | 92 | 1014.5 |
| 20260504215004 | 47 | 259 | 1.0 | 2.0 | 0.11 | 0.21 | 0.21 | 92 | 1014.6 |
| 20260504213005 | 47 | 261 | 1.0 | 3.0 | 0.11 | 0.20 | 0.20 | 92 | 1014.3 |
| 20260504212505 | 47 | 261 | 2.0 | 3.0 | 0.09 | 0.18 | 0.18 | 92 | 1014.3 |
| 20260504212004 | 48 | 262 | 2.0 | 3.0 | 0.07 | 0.16 | 0.16 | 92 | 1014.5 |
| 20260504211505 | 48 | 263 | 2.0 | 3.0 | 0.06 | 0.15 | 0.15 | 92 | 1014.5 |
| 20260504211004 | 48 | 262 | 1.0 | 3.0 | 0.05 | 0.14 | 0.14 | 92 | 1014.5 |
| 20260504210505 | 48 | 260 | 1.0 | 5.0 | 0.04 | 0.13 | 0.13 | 92 | 1014.4 |
| 20260504210005 | 48 | 269 | 2.0 | 3.0 | 0.03 | 0.12 | 0.12 | 91 | 1014.3 |
| 20260504205504 | 48 | 271 | 1.0 | 3.0 | 0.02 | 0.11 | 0.11 | 91 | 1014.3 |
| 20260504205005 | 48 | 271 | 2.0 | 3.0 | 0.01 | 0.10 | 0.10 | 91 | 1014.1 |
| 20260504204005 | 48 | 294 | 0.0 | 1.0 | 0.00 | 0.09 | 0.09 | 91 | 1014.2 |
| 20260504203504 | 49 | 294 | 1.0 | 2.0 | 0.00 | 0.09 | 0.09 | 91 | 1014.1 |
| 20260504201504 | 48 | 351 | 0.0 | 3.0 | 0.00 | 0.09 | 0.09 | 91 | 1013.9 |
| 20260504201004 | 48 | 254 | 1.0 | 3.0 | 0.00 | 0.09 | 0.09 | 91 | 1013.8 |
| 20260504200504 | 48 | 254 | 0.0 | 1.0 | 0.00 | 0.09 | 0.09 | 91 | 1013.8 |
| 20260504200004 | 48 | 254 | 1.0 | 3.0 | 0.00 | 0.09 | 0.09 | 90 | 1014.0 |
| 20260504195504 | 48 | 254 | 3.0 | 5.0 | 0.00 | 0.09 | 0.09 | 90 | 1014.0 |
| 20260504195004 | 48 | 199 | 1.0 | 3.0 | 0.00 | 0.09 | 0.09 | 92 | 1014.0 |
| 20260504194505 | 48 | 199 | 1.0 | 3.0 | 0.00 | 0.09 | 0.09 | 92 | 1014.0 |
| 20260504193505 | 47 | 199 | 0.0 | 3.0 | 0.00 | 0.09 | 0.09 | 92 | 1014.1 |
| 20260504193004 | 47 | 199 | 2.0 | 3.0 | 0.00 | 0.09 | 0.09 | 92 | 1014.1 |
| 20260504192505 | 47 | 199 | 2.0 | 3.0 | 0.00 | 0.09 | 0.09 | 92 | 1014.0 |
| 20260504191505 | 47 | 199 | 2.0 | 3.0 | 0.00 | 0.09 | 0.09 | 92 | 1014.1 |
| 20260504191005 | 47 | 211 | 2.0 | 3.0 | 0.00 | 0.09 | 0.09 | 93 | 1014.2 |
| 20260504190504 | 47 | 211 | 2.0 | 5.0 | 0.00 | 0.09 | 0.09 | 92 | 1014.2 |
| 20260504185505 | 47 | 212 | 2.0 | 3.0 | 0.01 | 0.09 | 0.09 | 92 | 1014.1 |
| 20260504185005 | 47 | 212 | 2.0 | 5.0 | 0.01 | 0.09 | 0.09 | 92 | 1014.2 |
| 20260504184005 | 47 | 289 | 1.0 | 3.0 | 0.01 | 0.09 | 0.09 | 92 | 1014.2 |
| 20260504183505 | 47 | 289 | 2.0 | 3.0 | 0.02 | 0.09 | 0.09 | 92 | 1014.2 |
| 20260504183005 | 47 | 292 | 1.0 | 2.0 | 0.02 | 0.09 | 0.09 | 93 | 1014.2 |
| 20260504182505 | 47 | 292 | 0.0 | 0.0 | 0.02 | 0.09 | 0.09 | 92 | 1014.3 |
| 20260504181504 | 47 | 292 | 0.0 | 0.0 | 0.02 | 0.09 | 0.09 | 93 | 1014.4 |
| 20260504181005 | 47 | 292 | 0.0 | 2.0 | 0.02 | 0.09 | 0.09 | 92 | 1014.3 |
| 20260504180504 | 47 | 292 | 1.0 | 2.0 | 0.03 | 0.09 | 0.09 | 92 | 1014.2 |
| 20260504175504 | 47 | 292 | 1.0 | 3.0 | 0.04 | 0.08 | 0.08 | 93 | 1013.9 |
| 20260504175004 | 47 | 292 | 1.0 | 3.0 | 0.05 | 0.08 | 0.08 | 93 | 1013.7 |
| 20260504174504 | 47 | 296 | 1.0 | 2.0 | 0.07 | 0.08 | 0.08 | 93 | 1013.6 |
| 20260504174005 | 46 | 296 | 0.0 | 0.0 | 0.08 | 0.08 | 0.08 | 92 | 1014.0 |
| 20260504173504 | 46 | 296 | 0.0 | 1.0 | 0.07 | 0.07 | 0.07 | 92 | 1013.9 |
| 20260504173005 | 46 | 296 | 0.0 | 0.0 | 0.07 | 0.07 | 0.07 | 92 | 1013.8 |
| 20260504172504 | 46 | 296 | 0.0 | 0.0 | 0.07 | 0.07 | 0.07 | 91 | 1013.8 |
| 20260504172005 | 46 | 296 | 1.0 | 2.0 | 0.07 | 0.07 | 0.07 | 91 | 1013.8 |
| 20260504171504 | 46 | 296 | 1.0 | 2.0 | 0.07 | 0.07 | 0.07 | 91 | 1013.7 |
| 20260504171005 | 46 | 296 | 0.0 | 1.0 | 0.07 | 0.07 | 0.07 | 91 | 1013.7 |
| 20260504151005 | 46 | 296 | 0.0 | 0.0 | 0.00 | 0.00 | 0.00 | 87 | 1013.7 |
| 20260504150505 | 46 | 296 | 0.0 | 0.0 | 0.00 | 0.00 | 0.00 | 87 | 1013.8 |
| 20260504141004 | 46 | 296 | 0.0 | 0.0 | 0.00 | 0.00 | 0.00 | 89 | 1013.3 |
| 20260504140505 | 46 | 296 | 0.0 | 0.0 | 0.00 | 0.00 | 0.00 | 89 | 1013.2 |
| 20260504130505 | 46 | 296 | 0.0 | 1.0 | 0.00 | 0.00 | 0.00 | 86 | 1012.6 |
| 20260504110504 | 47 | 296 | 0.0 | 0.0 | 0.00 | 0.00 | 0.00 | 82 | 1012.5 |
| 20260504100504 | 46 | 296 | 0.0 | 1.0 | 0.00 | 0.00 | 0.00 | 84 | 1012.4 |
| 20260504082004 | 47 | 271 | 3.0 | 6.0 | 0.00 | 0.00 | 0.00 | 90 | 1012.8 |
| 20260504081504 | 47 | 253 | 4.0 | 7.0 | 0.00 | 0.00 | 0.00 | 90 | 1012.9 |
| 20260504081004 | 48 | 240 | 2.0 | 3.0 | 0.00 | 0.00 | 0.00 | 90 | 1012.8 |
| 20260504050505 | 51 | 271 | 1.0 | 3.0 | 0.00 | 0.00 | 0.00 | 87 | 1013.1 |
| 20260504045505 | 51 | 271 | 1.0 | 2.0 | 0.00 | 0.00 | 0.00 | 86 | 1012.9 |
| 20260504044504 | 51 | 271 | 1.0 | 3.0 | 0.00 | 0.00 | 0.00 | 86 | 1012.7 |
| 20260504044004 | 51 | 271 | 1.0 | 3.0 | 0.00 | 0.00 | 0.00 | 86 | 1012.6 |
| 20260504043504 | 51 | 270 | 1.0 | 3.0 | 0.00 | 0.00 | 0.00 | 86 | 1012.5 |
| 20260504043005 | 51 | 270 | 1.0 | 2.0 | 0.00 | 0.00 | 0.00 | 86 | 1012.5 |
| 20260504042504 | 51 | 270 | 1.0 | 3.0 | 0.00 | 0.00 | 0.00 | 85 | 1012.6 |
| 20260504042004 | 51 | 265 | 4.0 | 8.0 | 0.00 | 0.00 | 0.00 | 85 | 1012.6 |
| 20260504041504 | 51 | 357 | 1.0 | 5.0 | 0.00 | 0.00 | 0.00 | 85 | 1012.6 |
| 20260504041004 | 51 | 278 | 2.0 | 3.0 | 0.00 | 0.00 | 0.00 | 85 | 1012.5 |
| 20260504035504 | 52 | 283 | 2.0 | 7.0 | 0.00 | 0.00 | 0.00 | 84 | 1012.5 |
| 20260504035004 | 52 | 288 | 2.0 | 6.0 | 0.00 | 0.00 | 0.00 | 84 | 1012.3 |
| 20260504034504 | 53 | 279 | 1.0 | 3.0 | 0.00 | 0.00 | 0.00 | 85 | 1012.3 |
| 20260504034004 | 53 | 306 | 1.0 | 3.0 | 0.00 | 0.00 | 0.00 | 85 | 1012.3 |
| 20260504033504 | 53 | 308 | 1.0 | 3.0 | 0.00 | 0.00 | 0.00 | 85 | 1012.2 |
| 20260504033005 | 53 | 294 | 0.0 | 3.0 | 0.00 | 0.00 | 0.00 | 85 | 1012.0 |
| 20260504032504 | 53 | 279 | 1.0 | 3.0 | 0.00 | 0.00 | 0.00 | 85 | 1011.8 |
| 20260504032004 | 53 | 279 | 2.0 | 3.0 | 0.00 | 0.00 | 0.00 | 85 | 1011.8 |
| 20260504031504 | 53 | 279 | 1.0 | 3.0 | 0.00 | 0.00 | 0.00 | 85 | 1011.7 |
| 20260504031004 | 53 | 9 | 0.0 | 2.0 | 0.00 | 0.00 | 0.00 | 85 | 1011.6 |
| 20260504030504 | 53 | 9 | 1.0 | 3.0 | 0.00 | 0.00 | 0.00 | 85 | 1011.4 |
| 20260504030004 | 53 | 303 | 1.0 | 3.0 | 0.00 | 0.00 | 0.00 | 85 | 1011.7 |
| 20260504025504 | 53 | 344 | 2.0 | 3.0 | 0.00 | 0.00 | 0.00 | 85 | 1011.7 |
| 20260504025005 | 53 | 336 | 2.0 | 3.0 | 0.00 | 0.00 | 0.00 | 85 | 1011.6 |
| 20260504024504 | 53 | 242 | 1.0 | 3.0 | 0.00 | 0.00 | 0.00 | 85 | 1011.6 |
| 20260504024003 | 53 | 243 | 2.0 | 3.0 | 0.00 | 0.00 | 0.00 | 85 | 1011.4 |
| 20260504023504 | 53 | 266 | 1.0 | 3.0 | 0.00 | 0.00 | 0.00 | 85 | 1011.4 |
| 20260504023004 | 53 | 266 | 1.0 | 3.0 | 0.00 | 0.00 | 0.00 | 85 | 1011.4 |
| 20260504022503 | 53 | 266 | 3.0 | 7.0 | 0.00 | 0.00 | 0.00 | 85 | 1011.6 |
| 20260504022004 | 53 | 261 | 2.0 | 3.0 | 0.00 | 0.00 | 0.00 | 85 | 1011.4 |
| 20260504021504 | 53 | 259 | 2.0 | 6.0 | 0.00 | 0.00 | 0.00 | 85 | 1011.3 |
| 20260504021004 | 53 | 263 | 2.0 | 7.0 | 0.00 | 0.00 | 0.00 | 85 | 1011.4 |
| 20260504020504 | 53 | 263 | 2.0 | 6.0 | 0.00 | 0.00 | 0.00 | 85 | 1011.2 |
| 20260504020004 | 54 | 257 | 2.0 | 3.0 | 0.00 | 0.00 | 0.00 | 84 | 1011.2 |
| 20260504015504 | 54 | 285 | 2.0 | 3.0 | 0.00 | 0.00 | 0.00 | 84 | 1011.2 |
| 20260504015004 | 54 | 261 | 2.0 | 9.0 | 0.00 | 0.00 | 0.00 | 84 | 1011.1 |
| 20260504014004 | 54 | 261 | 3.0 | 6.0 | 0.00 | 0.00 | 0.00 | 83 | 1011.0 |
| 20260504013503 | 54 | 290 | 1.0 | 3.0 | 0.00 | 0.00 | 0.00 | 83 | 1011.0 |
| 20260504013004 | 54 | 290 | 1.0 | 7.0 | 0.00 | 0.00 | 0.00 | 83 | 1010.9 |
| 20260504012004 | 55 | 263 | 4.0 | 9.0 | 0.00 | 0.00 | 0.00 | 82 | 1011.0 |